Location: *
(37.9500°N, 27.3666°E)
Time: 04:37:13
(UTC+00:00)

Cosmos 1626 Rocket - Pass Details

Date: 24 October 2021
Orbit: 603 x 631 km, 82.5° (Epoch: 03 December)

Event Time Altitude Azimuth Distance (km) Brightness Sun altitude
Rises 16:44:38 0° 350° (N) 2,863 7.1 -17.1°
Reaches altitude 10° 16:46:51 10° 349° (N) 1,955 6.2 -17.6°
Maximum altitude 16:51:10 73° 265° (W) 633 3.7 -18.4°
Drops below altitude 10° 16:55:26 10° 181° (S) 1,944 6.1 -19.3°
Sets 16:57:39 0° 179° (S) 2,846 7.0 -19.7°
